[keps] orb10119.2l.amsat

Ray Hoad ray.hoad at mypbmail.com
Thu Apr 29 19:30:37 PDT 2010


SB KEPS @ AMSAT  $ORB10119.N
2Line Orbital Elements 10119.AMSAT

HR AMSAT ORBITAL ELEMENTS FOR AMATEUR SATELLITES IN NASA FORMAT
FROM WA5QGD FORT WORTH,TX April 29, 2010
Send Subscribe/unsubscribe to KEPS at http://www.amsat.org/mailman/listinfo/keps
BID: ORB10119.N

DECODE 2-LINE ELSETS WITH THE FOLLOWING KEY:
1 AAAAAU 00  0  0 BBBBB.BBBBBBBB  .CCCCCCCC  00000-0  00000-0 0  DDDZ
2 AAAAA EEE.EEEE FFF.FFFF GGGGGGG HHH.HHHH III.IIII JJ.JJJJJJJJKKKKKZ
KEY: A-CATALOGNUM B-EPOCHTIME C-DECAY D-ELSETNUM E-INCLINATION F-RAAN
G-ECCENTRICITY H-ARGPERIGEE I-MNANOM J-MNMOTION K-ORBITNUM Z-CHECKSUM

TO ALL RADIO AMATEURS BT

AO-07
1 07530U 74089B   10118.72280199 -.00000027  00000-0  10000-3 0  7635
2 07530 101.4030 136.5055 0012236 012.0575 348.0781 12.53578212622259
FO-29
1 24278U 96046B   10119.59114790  .00000045  00000-0  84387-4 0  2992
2 24278 098.5150 315.4363 0349739 249.8968 106.4218 13.52949914676535
SO-33
1 25509U 98061B   10118.98344329  .00000005  00000-0 -13676-4 0  6998
2 25509 031.4332 066.7657 0354228 219.6991 137.7154 14.28303845601011
RS-22
1 27939U 03042A   10119.64657499  .00000149  00000-0  37593-4 0  1370
2 27939 097.9011 347.1769 0012917 209.1093 150.9385 14.63409963351858
VO-52
1 28650U 05017B   10119.03959676  .00000001  00000-0  65681-5 0  4921
2 28650 097.6957 174.3800 0028381 078.0462 282.3928 14.81730787269410
SO-67
1 35870U 09049F   10119.89174853 -.00327779  00000-0 -15375-1 0  6796
2 35870 097.3359 170.2952 0004146 225.6584 238.2067 15.21175977 34116
HO-68
1 36122U 09072B   10119.60296865 -.00000045  00000-0  00000 0 0  2583
2 36122 100.4727 180.5165 0007848 085.6634 274.5379 13.16280385 17824
UO-11
1 14781U 84021B   10119.60815910  .00000093  00000-0  19462-4 0  2270
2 14781 098.0592 171.1905 0009893 041.0096 319.1826 14.79794959404629
AO-16
1 20439U 90005D   10119.76249733  .00000029  00000-0  26596-4 0  8829
2 20439 098.3283 079.5857 0010340 315.1726 044.8611 14.31858630 58452
LO-19
1 20442U 90005G   10119.76800551 -.00000116  00000-0 -27601-4 0  7921
2 20442 098.2889 085.5899 0011241 309.5447 050.4729 14.32089767 58628
AO-27
1 22825U 93061C   10118.79999785  .00000054  00000-0  37832-4 0  5152
2 22825 098.4831 068.0373 0009230 058.5091 301.7011 14.29295181864994
IO-26
1 22826U 93061D   10118.87428804  .00000024  00000-0  25891-4 0  2539
2 22826 098.4751 068.7292 0009825 052.8646 307.3432 14.29550569865114
GO-32
1 25397U 98043D   10118.60588508 -.00000061  00000-0 -89455-5 0  1729
2 25397 098.3134 128.7873 0002153 068.8083 291.3311 14.23176416612998
NO-44
1 26931U 01043C   10119.16168122  .00000303  00000-0  15050-3 0  4454
2 26931 067.0542 330.2877 0005834 262.6501 097.3935 14.29595390447748
SO-50
1 27607U 02058C   10119.48531387  .00000058  00000-0  30806-4 0  1613
2 27607 064.5570 144.4431 0034788 100.2705 260.2327 14.71531285395216
CO-55
1 27844U 03031E   10119.07779779  .00000067  00000-0  51550-4 0  8359
2 27844 098.7103 128.7570 0009591 318.6163 041.4285 14.20702055354111
CO-57
1 27848U 03031J   10119.02978399  .00000077  00000-0  56085-4 0  7849
2 27848 098.7145 127.7945 0009608 323.6057 036.4455 14.20495451354069
AO-51
1 28375U 04025K   10118.90707768  .00000042  00000-0  25635-4 0  6630
2 28375 098.0612 115.2141 0082961 247.2921 111.9486 14.40681601306416
GENESAT1
1 29655U 06058C   10119.87807298  .00079480  00000-0  33791-3 0   341
2 29655 040.0181 342.1903 0009043 319.0604 040.9540 15.84145564192304
CP3
1 31129U 07012N   10119.77971609  .00000396  00000-0  10164-3 0  5645
2 31129 097.9427 161.9296 0103351 024.7646 335.8369 14.52246695160831
CO-65
1 32785U 08021C   10119.67572223  .00000257  00000-0  39388-4 0  6673
2 32785 097.9002 185.2644 0016186 083.0106 277.2981 14.81637437108306
KKS-1
1 33493U 09002B   10119.67609162  .00000543  00000-0  77151-4 0  4332
2 33493 098.0788 238.7688 0018721 299.9977 059.9378 14.80958079 68306
SOHLA-1
1 33496U 09002E   10118.79452586  .00000013  00000-0  10445-4 0   895
2 33496 098.0530 228.5208 0006687 009.9144 350.2193 14.69487938 67626
NOAA-10
1 16969U 86073A   10119.43595691  .00000045  00000-0  36389-4 0   497
2 16969 098.6598 148.8528 0012334 359.1537 000.9624 14.27414417228626
NOAA-11
1 19531U 88089A   10119.16431107  .00000054  00000-0  50435-4 0   617
2 19531 098.7681 209.0221 0010830 290.7665 069.2371 14.14922885114203
NOAA-12
1 21263U 91032A   10119.43287065  .00000039  00000-0  35358-4 0  5475
2 21263 098.7664 132.5962 0011818 312.5872 047.4311 14.25630577985452
MET-3/5
1 21655U 91056A   10118.87644368  .00000051  00000-0  10000-3 0  7984
2 21655 082.5596 343.4815 0014785 109.4436 250.8249 13.17024998899185
MET-2/21
1 22782U 93055A   10119.33525365  .00000005  00000-0 -85340-5 0  7615
2 22782 082.5437 291.2016 0022542 175.8827 184.2523 13.83643744841322
OKEAN-4
1 23317U 94066A   10119.39811288  .00000177  00000-0  18801-4 0  2173
2 23317 082.5425 039.3955 0023727 045.7862 314.5312 14.82805680839226
NOAA-14
1 23455U 94089A   10119.38047801  .00000017  00000-0  32408-4 0   396
2 23455 098.8784 200.4597 0009778 019.6320 340.5226 14.13784644790600
NOAA-15
1 25338U 98030A   10119.20794469  .00000184  00000-0  97369-4 0  3595
2 25338 098.6154 107.0190 0009920 213.4132 146.6430 14.24821733621772
RESURS
1 25394U 98043A   10118.60732379 -.00000015  00000-0  11099-4 0  4890
2 25394 098.3079 139.3802 0002079 035.5618 324.5707 14.24199113613297
FENGYUN1
1 25730U 99025A   10119.84837518  .00000017  00000-0  34792-4 0   301
2 25730 098.7846 086.0638 0025020 045.1723 315.1432 14.08224248564888
OKEAN-0
1 25860U 99039A   10119.39209475  .00000095  00000-0  21978-4 0  9784
2 25860 097.8283 093.7604 0000596 092.3205 267.8068 14.73634858579715
NOAA-16
1 26536U 00055A   10119.42273109 -.00000201  00000-0 -83606-4 0  8364
2 26536 099.1715 135.7386 0011348 111.7840 248.4526 14.12554959494944
NOAA-17
1 27453U 02032A   10119.37837184  .00000222  00000-0  11473-3 0  8401
2 27453 098.4346 171.7762 0010737 281.1411 078.8567 14.24153310407752
NOAA-18
1 28654U 05018A   10119.38403439  .00000069  00000-0  62532-4 0  3244
2 28654 098.9466 065.7968 0014032 187.7163 172.3787 14.11351101254557
NOAA-19
1 33591U 09005A   10119.36147460 -.00000177  00000-0 -74540-4 0  5221
2 33591 098.7859 062.5277 0015189 068.6763 291.6037 14.11046103 63028
HUBBLE
1 20580U 90037B   10119.57451948  .00000508  00000-0  26072-4 0  5573
2 20580 028.4692 197.2116 0003291 049.1055 310.9857 15.00960945897448
ISS
1 25544U 98067A   10119.78946759  .00012045  00000-0  88903-4 0   622
2 25544 051.6447 118.9583 0009681 254.0348 111.3677 15.73444830655858
CO-58
1 28895U 05043F   10119.66148547  .00000161  00000-0  43012-4 0  5704
2 28895 098.0236 005.7296 0019113 077.2560 283.0816 14.59881398239900
FALCON
1 30776U 07006E   10119.87668917  .00000874  00000-0  65672-4 0  8167
2 30776 035.4345 337.5859 0000120 355.6348 004.4365 15.03622112172786
MAST
1 31126U 07012K   10119.00414963  .00000199  00000-0  55258-4 0  8528
2 31126 097.9425 163.5467 0095304 019.7035 340.7813 14.53579819160914
CAPE1
1 31130U 07012P   10119.00817199  .00000449  00000-0  11382-3 0  8720
2 31130 097.9435 161.0586 0103348 027.5821 333.0804 14.52169523160521
COMPASS
1 32787U 08021E   10119.07909339  .00000535  00000-0  74293-4 0  6573
2 32787 097.8974 184.5029 0016993 085.1464 275.1715 14.81842806108221
AAUSAT2
1 32788U 08021F   10118.68174876  .00000717  00000-0  96925-4 0  6512
2 32788 097.8992 184.2307 0017115 087.6887 272.6277 14.81983713108173
DO-64
1 32789U 08021G   10118.69506174  .00000977  00000-0  12925-3 0  6676
2 32789 097.9043 184.6604 0016934 087.1687 273.1456 14.82100957108174
CO-66
1 32791U 08021J   10119.63423782  .00000737  00000-0  10019-3 0  6493
2 32791 097.8996 185.0710 0017264 081.7284 278.5888 14.81636413108264
RS-30
1 32953U 08025A   10119.75513246  .00000010  00000-0  00000 0 0  6461
2 32953 082.5012 059.7908 0017634 205.3053 154.7165 12.43005069 87722
TACSAT-3
1 35001U 09028A   10119.39617662  .00004401  00000-0  10777-3 0  2740
2 35001 040.4543 147.1068 0022125 356.5303 003.5352 15.41340632 53101
PHARMSAT
1 35002U 09028B   10119.23770348  .00004194  00000-0  10088-3 0  2592
2 35002 040.4703 146.2380 0024651 359.9945 000.0863 15.41909592 53095
HAWKSAT1
1 35003U 09028C   10119.23865335  .00008667  00000-0  18551-3 0  2765
2 35003 040.4620 142.3723 0022014 011.1038 349.0263 15.44541126 53147
CP6
1 35004U 09028D   10119.19498446  .00010202  00000-0  21265-3 0  2692
2 35004 040.4600 142.0476 0021280 012.4753 347.6585 15.45202223 53133
AEROCUB3
1 35005U 09028E   10119.19139136  .00028147  00000-0  51659-3 0  2946
2 35005 040.4741 141.4714 0017415 020.1900 339.9586 15.48430985 53140
DRAGNSAT
1 35690U 09038B   10076.22711312  .05715194  12509-4  31481-3 0  3162
2 35690 051.6170 315.4586 0004999 310.9891 057.3269 16.42150010 36561
POLLUX
1 35693U 09038E   10087.99866888  .23496735  12787-4  17715-3 0  3529
2 35693 051.6099 254.5746 0006270 294.4866 097.5899 16.52338462 38395
CASTOR
1 35694U 09038F   10119.89673469  .00061264  12747-4  15845-3 0  3298
2 35694 051.6361 097.4095 0005339 039.4492 320.6938 15.95407131 43336
METEOR-M
1 35865U 09049A   10119.71857205  .00000176  00000-0  10000-3 0  2492
2 35865 098.7629 173.8542 0002702 124.6839 235.4546 14.21829871 31831
RS-38
1 35869U 09049E   10119.69524388  .00000177  00000-0  10000-3 0  2543
2 35869 098.7606 173.8580 0004988 136.9294 223.2232 14.21980425 31831
/EX




More information about the Keps mailing list